Home > Weather > Rodgau > Past weeks

Flag for Germany Weather for the Past 2 Weeks in Rodgau, Hesse, Germany

Now
39 °F

Light rain. Passing clouds.


Feels Like: 33 °F
Forecast: 37 / 45 °F
Wind: 9 mph from Northeast

Location: Frankfurt-M-Flughafen Airport

Current Time: Feb 13, 2016 at 9:01:09 PM

Latest Report: Feb 13, 2016 at 8:20 PM


Visibility: 3 mi

Pressure: 29.09 "Hg

Humidity: 93%

Dew point: 37 °F

Location of RodgauLocation

Historic Weather in Rodgau — Graph

°F

Rodgau Temperature Yesterday

Maximum temperature yesterday: 43 °F (at 2:20 PM)
Minimum temperature yesterday: 30 °F (at 6:20 AM)
Average temperature yesterday: 37 °F

High & Low Weather Summary for the Past Weeks

 TemperatureHumidityPressure
High57 °F (Feb 1, 3:50 AM)100% (Jan 31, 7:50 PM)30.33 "Hg (Jan 31, 7:50 PM)
Low30 °F (Feb 12, 6:20 AM)59% (Feb 6, 3:20 PM)29.03 "Hg (Feb 9, 5:50 PM)
Average43 °F81%29.82 "Hg
* Reported Jan 29 7:20 PM — Feb 13 7:50 PM, Rodgau, Weather by CustomWeather, © 2016

Note: Actual official high and low records may vary slightly from our data, if they occured in-between our weather recording intervals... More about our weather records

Advertising

Rodgau Weather History for the Previous 24 Hours

 ConditionsComfort  
Time TempWeatherWind HumidityBarometerVisibility
7:50 PM
Sat, Feb 13
39 °FLight rain. Passing clouds.10 mph93%29.09 "Hg4 mi
7:20 PM39 °FLight rain. Partly cloudy.10 mph93%29.09 "Hg3 mi
6:50 PM39 °FPartly cloudy.10 mph93%29.12 "Hg4 mi
6:20 PM39 °FLight rain. Partly cloudy.9 mph93%29.12 "Hg4 mi
5:50 PM39 °FLight rain. Partly cloudy.10 mph93%29.12 "Hg4 mi
5:20 PM39 °FLight rain. Broken clouds.9 mph93%29.15 "Hg3 mi
4:50 PM39 °FLight rain. Partly sunny.10 mph87%29.15 "Hg4 mi
4:20 PM37 °FLight rain. Partly sunny.10 mph93%29.15 "Hg4 mi
3:50 PM39 °FLight rain. Broken clouds.10 mph93%29.18 "Hg4 mi
3:20 PM37 °FDrizzle. Partly sunny.9 mph93%29.18 "Hg3 mi
2:50 PM37 °FDrizzle. Broken clouds.8 mph93%29.21 "Hg3 mi
2:20 PM37 °FLight rain. Broken clouds.7 mph93%29.21 "Hg3 mi
1:50 PM37 °FLight rain. Partly sunny.7 mph87%29.24 "HgN/A
1:20 PM37 °FOvercast.6 mph81%29.24 "HgN/A
12:50 PM36 °FOvercast.6 mph87%29.27 "HgN/A
12:20 PM36 °FOvercast.6 mph87%29.30 "HgN/A
11:50 AM36 °FBroken clouds.6 mph81%29.30 "HgN/A
11:20 AM36 °FLight snow. Partly sunny.6 mph87%29.30 "HgN/A
10:50 AM34 °FLight snow. Partly sunny.5 mph87%29.33 "HgN/A
10:20 AM34 °FLight rain. Overcast.5 mph87%29.33 "HgN/A
9:50 AM34 °FOvercast.5 mph87%29.33 "HgN/A
9:20 AM34 °FBroken clouds.5 mph81%29.36 "HgN/A
8:50 AM32 °FPartly sunny.6 mph93%29.36 "HgN/A
8:20 AM32 °FSunny.6 mph87%29.36 "Hg10 mi
7:50 AM32 °FSunny.8 mph87%29.36 "Hg10 mi
7:20 AM32 °FClear.6 mph87%29.36 "Hg10 mi
6:50 AM32 °FClear.3 mph87%29.36 "Hg10 mi
6:20 AM30 °FPassing clouds.3 mph86%29.36 "HgN/A
5:50 AM32 °FPassing clouds.6 mph87%29.36 "HgN/A
5:20 AM30 °FPassing clouds.3 mph86%29.36 "HgN/A
4:50 AM30 °FClear.6 mph86%29.36 "Hg10 mi
4:20 AM30 °FPassing clouds.5 mph86%29.36 "HgN/A
3:20 AM32 °FPassing clouds.8 mph80%29.39 "HgN/A
2:50 AM34 °FClear.9 mph81%29.39 "Hg10 mi
2:20 AM36 °FClear.10 mph75%29.39 "Hg10 mi
1:50 AM36 °FClear.12 mph75%29.36 "Hg10 mi
1:20 AM34 °FClear.10 mph81%29.39 "Hg10 mi
12:50 AM34 °FClear.9 mph81%29.36 "Hg10 mi
12:20 AM36 °FClear.8 mph75%29.36 "Hg10 mi
11:50 PM
Fri, Feb 12
36 °FClear.8 mph81%29.36 "Hg10 mi
11:20 PM36 °FClear.9 mph81%29.39 "Hg10 mi
10:20 PM37 °FClear.10 mph75%29.39 "Hg10 mi
9:50 PM37 °FClear.10 mph75%29.39 "Hg10 mi
9:20 PM37 °FClear.13 mph75%29.39 "Hg10 mi
Weather by CustomWeather, © 2016

See weather overviewHow to use our weather pages